Date String (YYYY-MM-DD hh:mm:ss) UTC,Instrument flags,Ambient pressure (hPa),Sample flow (lpm),Bypass flow (lpm),Sample temperature (°C),Ambient temperature (°C),ASC tube jacket temperature (°C),LED temperature (°C),Box temperature (°C),Sample RH (%),Span deviation,Mass concentration (μg/m³),Mass concentration (μg/m³),Mass concentration (μg/m³)
DateTimeUTC,F1_M11,P_M11,Q1_M11,Q2_M11,T1_M11,T2_M11,T3_M11,T4_M11,T5_M11,U1_M11,ZSPAN_M11,X2_M11,X0_M11,X1_M11
2022-07-31 14:00:00,,0830.2,5.01,0.00,29.8,27.7,00.0,38.6,31.6,23.6,0000.0,0005.57,0009.21,0005.20
2022-07-31 14:01:00,,0830.2,4.99,0.00,29.8,27.9,00.0,38.6,31.5,24.0,0000.0,0005.61,0009.38,0005.23
2022-07-31 14:02:00,,0830.3,4.99,0.00,29.8,28.0,00.0,38.6,31.6,23.6,0000.0,0005.65,0009.49,0005.25
2022-07-31 14:03:00,,0830.2,5.00,0.00,29.8,28.1,00.0,38.6,31.6,23.3,0000.0,0005.66,0009.49,0005.26
2022-07-31 14:04:00,,0830.2,5.00,0.00,29.8,28.3,00.0,38.6,31.6,23.6,0000.0,0005.68,0009.54,0005.27
2022-07-31 14:05:00,,0830.3,5.00,0.00,29.8,28.4,00.0,38.6,31.7,23.6,0000.0,0005.68,0009.49,0005.27
2022-07-31 14:06:00,,0830.3,4.99,0.00,29.8,28.5,00.0,38.6,31.7,23.7,0000.0,0005.67,0009.45,0005.27
2022-07-31 14:07:00,,0830.2,5.00,0.00,29.8,28.6,00.0,38.6,31.7,23.2,0000.0,0005.69,0009.67,0005.28
2022-07-31 14:08:00,,0830.2,4.98,0.00,29.8,28.7,00.0,38.6,31.8,23.2,0000.0,0005.68,0009.55,0005.27
2022-07-31 14:09:00,,0830.3,5.00,0.00,29.9,28.8,00.0,38.6,31.8,22.9,0000.0,0005.67,0009.83,0005.26
2022-07-31 14:10:00,,0830.2,5.01,0.00,29.9,28.8,00.0,38.6,31.8,23.2,0000.0,0005.65,0009.98,0005.26
2022-07-31 14:11:00,,0830.3,4.99,0.00,29.9,28.9,00.0,38.7,31.9,23.2,0000.0,0005.64,0009.91,0005.26
2022-07-31 14:12:00,,0830.3,5.01,0.00,29.9,28.6,00.0,38.6,31.8,23.1,0000.0,0005.62,0009.76,0005.27
2022-07-31 14:13:00,,0830.3,5.00,0.00,29.9,27.9,00.0,38.6,31.6,22.7,0000.0,0005.59,0009.68,0005.27
2022-07-31 14:14:00,,0830.3,5.01,0.00,29.9,27.6,00.0,38.6,31.6,23.4,0000.0,0005.61,0010.18,0005.27
2022-07-31 14:15:00,,0830.3,5.00,0.00,29.8,27.7,00.0,38.6,31.5,23.7,0000.0,0005.61,0010.28,0005.27
2022-07-31 14:16:00,,0830.3,4.99,0.00,29.8,27.8,00.0,38.6,31.5,22.6,0000.0,0005.61,0010.31,0005.28
2022-07-31 14:17:00,,0830.3,5.00,0.00,29.7,27.9,00.0,38.6,31.5,22.6,0000.0,0005.62,0010.39,0005.29
2022-07-31 14:18:00,,0830.4,5.01,0.00,29.8,28.0,00.0,38.6,31.6,23.2,0000.0,0005.62,0010.16,0005.29
2022-07-31 14:19:00,,0830.4,5.00,0.00,29.7,28.2,00.0,38.6,31.6,23.0,0000.0,0005.64,0009.71,0005.30
2022-07-31 14:20:00,,0830.4,5.00,0.00,29.8,28.3,00.0,38.6,31.7,23.3,0000.0,0005.66,0009.56,0005.32
2022-07-31 14:21:00,,0830.4,5.00,0.00,29.8,28.4,00.0,38.6,31.7,23.7,0000.0,0005.71,0009.09,0005.34
2022-07-31 14:22:00,,0830.4,5.00,0.00,29.8,28.5,00.0,38.6,31.7,23.7,0000.0,0005.70,0009.09,0005.34
2022-07-31 14:23:00,,0830.4,5.00,0.00,29.8,28.6,00.0,38.6,31.8,23.7,0000.0,0005.71,0009.41,0005.34
2022-07-31 14:24:00,,0830.4,5.01,0.00,29.8,28.7,00.0,38.6,31.8,23.6,0000.0,0005.72,0009.63,0005.34
2022-07-31 14:25:00,,0830.4,5.00,0.00,29.9,28.8,00.0,38.6,31.8,23.5,0000.0,0005.70,0009.76,0005.33
2022-07-31 14:26:00,,0830.4,5.01,0.00,29.9,28.7,00.0,38.6,31.8,22.7,0000.0,0005.69,0009.54,0005.33
2022-07-31 14:27:00,,0830.4,5.00,0.00,29.9,28.1,00.0,38.6,31.6,23.0,0000.0,0005.71,0009.60,0005.32
2022-07-31 14:28:00,,0830.4,4.99,0.00,29.8,27.6,00.0,38.6,31.5,22.8,0000.0,0005.73,0009.60,0005.31
2022-07-31 14:29:00,,0830.4,5.01,0.00,29.8,27.5,00.0,38.6,31.5,23.1,0000.0,0005.73,0009.56,0005.31
2022-07-31 14:30:00,,0830.4,5.00,0.00,29.7,27.6,00.0,38.5,31.5,22.9,0000.0,0005.73,0009.52,0005.30
2022-07-31 14:31:00,,0830.4,5.00,0.00,29.7,27.8,00.0,38.5,31.5,22.8,0000.0,0005.71,0009.46,0005.30
2022-07-31 14:32:00,,0830.4,5.00,0.00,29.7,27.9,00.0,38.5,31.5,22.6,0000.0,0005.67,0009.31,0005.28
2022-07-31 14:33:00,,0830.4,5.00,0.00,29.7,28.1,00.0,38.5,31.6,23.2,0000.0,0005.66,0009.30,0005.27
2022-07-31 14:34:00,,0830.4,5.01,0.00,29.7,28.2,00.0,38.5,31.6,23.3,0000.0,0005.69,0009.38,0005.27
2022-07-31 14:35:00,,0830.4,5.00,0.00,29.7,28.3,00.0,38.5,31.6,23.6,0000.0,0005.68,0009.49,0005.27
2022-07-31 14:36:00,,0830.4,4.99,0.00,29.7,28.5,00.0,38.5,31.7,23.0,0000.0,0005.69,0008.89,0005.28
2022-07-31 14:37:00,,0830.4,5.01,0.00,29.8,28.6,00.0,38.5,31.7,23.2,0000.0,0005.69,0008.89,0005.28
2022-07-31 14:38:00,,0830.4,5.00,0.00,29.8,28.7,00.0,38.6,31.8,23.1,0000.0,0005.67,0009.33,0005.27
2022-07-31 14:39:00,,0830.4,4.99,0.00,29.8,28.7,00.0,38.6,31.8,23.9,0000.0,0005.66,0009.39,0005.29
2022-07-31 14:40:00,,0830.4,5.00,0.00,29.9,28.6,00.0,38.6,31.8,23.3,0000.0,0005.66,0009.47,0005.29
2022-07-31 14:41:00,,0830.4,5.01,0.00,29.8,27.9,00.0,38.5,31.5,23.2,0000.0,0005.62,0009.41,0005.29
2022-07-31 14:42:00,,0830.4,5.01,0.00,29.8,27.4,00.0,38.5,31.5,23.5,0000.0,0005.62,0009.44,0005.28
2022-07-31 14:43:00,,0830.4,4.99,0.00,29.7,27.4,00.0,38.5,31.4,23.5,0000.0,0005.64,0009.66,0005.28
2022-07-31 14:44:00,,0830.4,5.00,0.00,29.7,27.5,00.0,38.5,31.4,22.3,0000.0,0005.64,0009.67,0005.28
2022-07-31 14:45:00,,0830.5,5.00,0.00,29.6,27.7,00.0,38.5,31.4,22.9,0000.0,0005.58,0009.30,0005.26
2022-07-31 14:46:00,,0830.5,5.00,0.00,29.6,27.9,00.0,38.5,31.5,23.7,0000.0,0005.53,0008.90,0005.23
2022-07-31 14:47:00,,0830.5,5.00,0.00,29.6,28.0,00.0,38.5,31.5,23.0,0000.0,0005.51,0008.84,0005.22
2022-07-31 14:48:00,,0830.5,5.00,0.00,29.7,28.2,00.0,38.5,31.5,23.6,0000.0,0005.49,0008.77,0005.20
2022-07-31 14:49:00,,0830.5,4.99,0.00,29.7,28.3,00.0,38.5,31.6,23.4,0000.0,0005.46,0008.28,0005.19
2022-07-31 14:50:00,,0830.5,5.00,0.00,29.7,28.4,00.0,38.5,31.6,23.9,0000.0,0005.42,0008.15,0005.17
2022-07-31 14:51:00,,0830.5,4.99,0.00,29.7,28.6,00.0,38.5,31.7,22.9,0000.0,0005.39,0008.06,0005.16
2022-07-31 14:52:00,,0830.5,5.01,0.00,29.8,28.7,00.0,38.5,31.7,22.5,0000.0,0005.41,0008.10,0005.15
2022-07-31 14:53:00,,0830.5,4.99,0.00,29.8,28.7,00.0,38.5,31.7,22.7,0000.0,0005.42,0008.14,0005.13
2022-07-31 14:54:00,,0830.5,5.00,0.00,29.8,28.2,00.0,38.5,31.6,22.7,0000.0,0005.40,0008.08,0005.13
2022-07-31 14:55:00,,0830.5,5.00,0.00,29.7,27.6,00.0,38.5,31.5,23.2,0000.0,0005.38,0008.22,0005.12
2022-07-31 14:56:00,,0830.5,5.01,0.00,29.7,27.5,00.0,38.4,31.5,23.6,0000.0,0005.39,0008.24,0005.12
2022-07-31 14:57:00,,0830.6,5.00,0.00,29.7,27.5,00.0,38.4,31.4,23.8,0000.0,0005.42,0008.29,0005.13
2022-07-31 14:58:00,,0830.5,5.00,0.00,29.6,27.7,00.0,38.4,31.4,24.0,0000.0,0005.42,0008.32,0005.12
2022-07-31 14:59:00,,0830.6,4.99,0.00,29.6,27.8,00.0,38.4,31.4,24.3,0000.0,0005.40,0008.31,0005.12
